EW4883 Weather Reports


Display with metric or nautical units.
time (UTC)temp
F
wind
direction
speed
MPH
gust
MPH
rain 1hr
in
rain 24hr
in
rain mn
in
humidity
%
barometer
mb
20260905045052 87 229 3.0 10.0 0.00 0.00 0.00 41 1014.7
20260905044600 87 223 3.0 7.0 0.00 0.00 0.00 41 1014.8
20260905044055 87 217 2.0 7.0 0.00 0.00 0.00 40 1014.7
20260905043555 87 218 3.0 7.0 0.00 0.00 0.00 40 1014.8
20260905043130 87 222 2.0 5.0 0.00 0.00 0.00 40 1014.8
20260905042551 87 211 2.0 7.0 0.00 0.00 0.00 40 1014.8
20260905042052 87 237 2.0 7.0 0.00 0.00 0.00 40 1014.9
20260905041604 87 236 1.0 5.0 0.00 0.00 0.00 40 1014.9
20260905041051 87 225 1.0 5.0 0.00 0.00 0.00 40 1014.9
20260905040556 88 225 2.0 8.0 0.00 0.00 0.00 39 1014.8
20260905040119 88 214 1.0 9.0 0.00 0.00 0.00 39 1014.9
20260905035553 88 196 2.0 9.0 0.00 0.00 0.00 39 1014.8
20260905035049 88 238 4.0 8.0 0.00 0.00 0.00 39 1014.8
20260905034558 88 229 4.0 8.0 0.00 0.00 0.00 39 1014.8
20260905034055 88 210 2.0 6.0 0.00 0.00 0.00 39 1014.7
20260905033551 88 211 2.0 8.0 0.00 0.00 0.00 39 1014.7
20260905033110 88 202 3.0 8.0 0.00 0.00 0.00 38 1014.6
20260905032553 88 228 2.0 6.0 0.00 0.00 0.00 38 1014.6
20260905032051 88 198 2.0 5.0 0.00 0.00 0.00 38 1014.6
20260905031613 88 228 1.0 5.0 0.00 0.00 0.00 38 1014.5
20260905031053 89 230 2.0 6.0 0.00 0.00 0.00 37 1014.5
20260905030552 89 224 2.0 7.0 0.00 0.00 0.00 37 1014.4
20260905030105 89 224 3.0 7.0 0.00 0.00 0.00 37 1014.2
20260905025552 89 219 2.0 6.0 0.00 0.00 0.00 37 1014.2
20260905025053 89 220 1.0 4.0 0.00 0.00 0.00 37 1014.1
20260905024602 89 0 0.0 6.0 0.00 0.00 0.00 37 1013.9
20260905024052 89 0 2.0 6.0 0.00 0.00 0.00 37 1014.0
20260905023558 89 225 0.0 2.0 0.00 0.00 0.00 37 1013.9
20260905023105 89 0 0.0 4.0 0.00 0.00 0.00 36 1013.7
20260905022552 89 0 1.0 5.0 0.00 0.00 0.00 36 1013.7
20260905022052 89 225 2.0 6.0 0.00 0.00 0.00 35 1013.8
20260905021601 89 225 3.0 6.0 0.00 0.00 0.00 35 1013.9
20260905021051 89 231 3.0 5.0 0.00 0.00 0.00 35 1013.8
20260905020551 89 238 2.0 10.0 0.00 0.00 0.00 36 1013.8
20260905020110 90 238 3.0 10.0 0.00 0.00 0.00 36 1013.7
20260905015552 90 238 4.0 10.0 0.00 0.00 0.00 35 1013.7
20260905015056 90 271 1.0 6.0 0.00 0.00 0.00 34 1013.7
20260905014604 90 270 1.0 6.0 0.00 0.00 0.00 33 1013.6
20260905014052 90 270 1.0 6.0 0.00 0.00 0.00 33 1013.6
20260905013552 90 273 1.0 6.0 0.00 0.00 0.00 33 1013.6
20260905013101 91 273 2.0 6.0 0.00 0.00 0.00 33 1013.6
20260905012555 91 283 1.0 10.0 0.00 0.00 0.00 33 1013.6
20260905012052 91 232 3.0 10.0 0.00 0.00 0.00 33 1013.6
20260905011605 91 254 4.0 9.0 0.00 0.00 0.00 33 1013.5
20260905011052 91 246 5.0 9.0 0.00 0.00 0.00 32 1013.5
20260905010552 92 249 3.0 9.0 0.00 0.00 0.00 31 1013.5
20260905010108 92 254 3.0 9.0 0.00 0.00 0.00 29 1013.5
20260905005551 92 250 2.0 12.0 0.00 0.00 0.00 29 1013.4
20260905005052 92 234 5.0 12.0 0.00 0.00 0.00 28 1013.4
20260905004613 93 249 4.0 9.0 0.00 0.00 0.00 28 1013.3
20260905004051 94 258 4.0 12.0 0.00 0.00 0.00 27 1013.5
20260905003554 94 313 3.0 12.0 0.00 0.00 0.00 27 1013.4
20260905003056 94 257 6.0 12.0 0.00 0.00 0.00 27 1013.4
20260905002550 95 287 2.0 7.0 0.00 0.00 0.00 27 1013.3
20260905002055 95 243 2.0 7.0 0.00 0.00 0.00 28 1013.1
20260905001554 94 0 1.0 13.0 0.00 0.00 0.00 30 1013.2
20260905001050 94 244 3.0 13.0 0.00 0.00 0.00 29 1013.2
20260905000552 95 283 4.0 10.0 0.00 0.00 0.00 29 1013.2
20260904235552 95 257 4.0 9.0 0.00 0.00 0.00 29 1013.1
20260904235055 95 260 3.0 11.0 0.00 0.00 0.00 29 1013.2
20260904234601 94 242 3.0 13.0 0.00 0.00 0.00 30 1013.2
20260904234054 94 235 6.0 14.0 0.00 0.00 0.00 30 1013.3
20260904233551 94 244 7.0 14.0 0.00 0.00 0.00 30 1013.4
20260904233106 95 263 6.0 13.0 0.00 0.00 0.00 30 1013.4
20260904232551 95 257 4.0 12.0 0.00 0.00 0.00 30 1013.3
20260904232053 94 304 6.0 12.0 0.00 0.00 0.00 31 1013.4
20260904231559 94 257 5.0 12.0 0.00 0.00 0.00 30 1013.5
20260904231052 94 250 4.0 11.0 0.00 0.00 0.00 32 1013.5
20260904230551 94 252 3.0 11.0 0.00 0.00 0.00 31 1013.4
20260904230109 95 352 6.0 11.0 0.00 0.00 0.00 32 1013.5
20260904225553 95 5 3.0 12.0 0.00 0.00 0.00 31 1013.5
20260904225052 94 311 3.0 12.0 0.00 0.00 0.00 31 1013.6
20260904224601 95 313 5.0 12.0 0.00 0.00 0.00 30 1013.6
20260904224053 95 227 4.0 9.0 0.00 0.00 0.00 31 1013.7
20260904223551 96 288 3.0 17.0 0.00 0.00 0.00 30 1013.7
20260904223059 96 302 4.0 17.0 0.00 0.00 0.00 30 1013.7
20260904222550 96 281 3.0 12.0 0.00 0.00 0.00 29 1013.7
20260904222058 96 329 2.0 13.0 0.00 0.00 0.00 29 1013.7
20260904221605 96 229 4.0 13.0 0.00 0.00 0.00 28 1013.7
20260904221055 96 225 4.0 11.0 0.00 0.00 0.00 28 1013.8
20260904220552 96 238 4.0 10.0 0.00 0.00 0.00 28 1013.8
20260904220115 96 217 3.0 9.0 0.00 0.00 0.00 28 1013.9
20260904215552 96 124 0.0 7.0 0.00 0.00 0.00 28 1013.9
20260904215051 95 198 2.0 9.0 0.00 0.00 0.00 28 1014.0
20260904214600 95 155 3.0 9.0 0.00 0.00 0.00 27 1014.1
20260904214054 94 169 2.0 11.0 0.00 0.00 0.00 29 1014.1
20260904213549 94 0 3.0 11.0 0.00 0.00 0.00 29 1014.1
20260904213106 93 246 4.0 11.0 0.00 0.00 0.00 29 1014.2
20260904212554 93 222 2.0 9.0 0.00 0.00 0.00 31 1014.2
20260904212051 94 263 1.0 10.0 0.00 0.00 0.00 31 1014.3
20260904211613 95 258 4.0 10.0 0.00 0.00 0.00 31 1014.4
20260904211055 94 246 3.0 9.0 0.00 0.00 0.00 32 1014.3
20260904210551 94 267 4.0 9.0 0.00 0.00 0.00 32 1014.4
20260904210100 94 236 1.0 9.0 0.00 0.00 0.00 33 1014.4
20260904205551 94 259 4.0 9.0 0.00 0.00 0.00 34 1014.4
20260904205050 94 244 2.0 9.0 0.00 0.00 0.00 36 1014.4
20260904204605 94 226 3.0 12.0 0.00 0.00 0.00 36 1014.6
20260904204053 93 241 3.0 12.0 0.00 0.00 0.00 36 1014.6
20260904203553 94 246 4.0 12.0 0.00 0.00 0.00 36 1014.8
20260904203104 94 0 3.0 9.0 0.00 0.00 0.00 35 1014.9
20260904202552 94 0 0.0 5.0 0.00 0.00 0.00 35 1014.9
20260904202052 94 178 1.0 11.0 0.00 0.00 0.00 34 1015.0
20260904201559 94 147 1.0 13.0 0.00 0.00 0.00 36 1015.1
20260904201051 94 190 4.0 13.0 0.00 0.00 0.00 36 1015.2
20260904200551 94 308 4.0 13.0 0.00 0.00 0.00 36 1015.2
20260904200100 93 238 3.0 9.0 0.00 0.00 0.00 36 1015.3
20260904195551 93 236 3.0 9.0 0.00 0.00 0.00 37 1015.4
20260904195050 93 246 2.0 10.0 0.00 0.00 0.00 38 1015.4
20260904194620 92 218 1.0 10.0 0.00 0.00 0.00 39 1015.4
20260904194052 91 227 4.0 10.0 0.00 0.00 0.00 39 1015.4
20260904193552 91 0 2.0 10.0 0.00 0.00 0.00 38 1015.5
20260904193110 92 351 3.0 8.0 0.00 0.00 0.00 38 1015.6
20260904192552 91 304 2.0 8.0 0.00 0.00 0.00 39 1015.5
20260904192051 91 0 0.0 7.0 0.00 0.00 0.00 39 1015.6
20260904191602 92 165 1.0 7.0 0.00 0.00 0.00 39 1015.7
20260904191051 91 140 2.0 7.0 0.00 0.00 0.00 39 1015.8
20260904190552 92 102 4.0 8.0 0.00 0.00 0.00 38 1015.8
20260904190059 92 141 3.0 8.0 0.00 0.00 0.00 39 1015.8
20260904185552 92 146 2.0 9.0 0.00 0.00 0.00 38 1015.8
20260904185051 91 200 2.0 9.0 0.00 0.00 0.00 40 1015.9
20260904184604 90 127 3.0 9.0 0.00 0.00 0.00 40 1016.0
20260904184053 90 61 4.0 8.0 0.00 0.00 0.00 42 1016.0
20260904183554 90 96 3.0 9.0 0.00 0.00 0.00 42 1016.2
20260904183118 90 80 3.0 9.0 0.00 0.00 0.00 41 1016.3
20260904182551 90 108 3.0 8.0 0.00 0.00 0.00 42 1016.3
20260904182051 89 26 4.0 8.0 0.00 0.00 0.00 44 1016.4
20260904181602 89 94 1.0 8.0 0.00 0.00 0.00 45 1016.5
20260904181053 89 121 1.0 8.0 0.00 0.00 0.00 45 1016.5
20260904180553 89 106 2.0 8.0 0.00 0.00 0.00 45 1016.6
20260904180123 89 123 2.0 6.0 0.00 0.00 0.00 44 1016.6
20260904175556 89 234 1.0 6.0 0.00 0.00 0.00 46 1016.6
20260904175050 89 142 2.0 9.0 0.00 0.00 0.00 48 1016.7
20260904174609 88 117 3.0 9.0 0.00 0.00 0.00 48 1016.8
20260904174051 88 127 3.0 7.0 0.00 0.00 0.00 47 1016.7
20260904173551 88 131 2.0 9.0 0.00 0.00 0.00 48 1016.8
20260904173056 88 209 1.0 10.0 0.00 0.00 0.00 50 1016.9
20260904172551 88 139 3.0 10.0 0.00 0.00 0.00 50 1016.9
20260904172050 88 118 4.0 10.0 0.00 0.00 0.00 50 1017.0
20260904171604 87 127 0.0 6.0 0.00 0.00 0.00 51 1017.0
20260904171051 87 192 0.0 8.0 0.00 0.00 0.00 52 1017.1
20260904170551 87 122 3.0 8.0 0.00 0.00 0.00 51 1017.1
20260904170107 87 76 1.0 11.0 0.00 0.00 0.00 52 1017.2
20260904165552 87 140 5.0 11.0 0.00 0.00 0.00 53 1017.2
20260904165053 86 73 3.0 9.0 0.00 0.00 0.00 54 1017.2
20260904164603 86 86 4.0 10.0 0.00 0.00 0.00 55 1017.2
20260904164051 85 73 5.0 13.0 0.00 0.00 0.00 53 1017.1
20260904163551 85 101 4.0 13.0 0.00 0.00 0.00 54 1017.1
20260904163055 85 99 5.0 9.0 0.00 0.00 0.00 55 1017.1
20260904162552 85 142 4.0 11.0 0.00 0.00 0.00 55 1017.1
20260904162053 85 117 5.0 11.0 0.00 0.00 0.00 56 1016.9
20260904161634 85 134 5.0 11.0 0.00 0.00 0.00 56 1016.9
20260904161053 85 0 3.0 10.0 0.00 0.00 0.00 57 1016.8
20260904160552 85 144 2.0 9.0 0.00 0.00 0.00 57 1016.8
20260904155550 84 84 4.0 9.0 0.00 0.00 0.00 59 1016.9
20260904155121 84 82 4.0 9.0 0.00 0.00 0.00 59 1016.7
20260904154600 83 118 4.0 11.0 0.00 0.00 0.00 60 1016.8
20260904154051 83 140 4.0 11.0 0.00 0.00 0.00 61 1016.7
20260904153552 83 118 4.0 9.0 0.00 0.00 0.00 61 1016.8
20260904153101 83 127 3.0 11.0 0.00 0.00 0.00 63 1016.8
20260904152550 82 113 4.0 11.0 0.00 0.00 0.00 62 1016.7
20260904152050 82 86 5.0 10.0 0.00 0.00 0.00 63 1016.7
20260904151607 82 127 3.0 9.0 0.00 0.00 0.00 64 1016.7
20260904151051 82 123 5.0 9.0 0.00 0.00 0.00 64 1016.7
20260904150553 81 96 3.0 9.0 0.00 0.00 0.00 64 1016.6
20260904150104 81 117 6.0 10.0 0.00 0.00 0.00 64 1016.6
20260904145552 81 92 6.0 10.0 0.00 0.00 0.00 64 1016.5
20260904145053 81 144 5.0 10.0 0.00 0.00 0.00 64 1016.5
20260904144608 81 138 5.0 9.0 0.00 0.00 0.00 63 1016.5
20260904144052 81 113 3.0 9.0 0.00 0.00 0.00 65 1016.4
20260904143553 81 124 4.0 8.0 0.00 0.00 0.00 65 1016.5
20260904143057 80 128 3.0 8.0 0.00 0.00 0.00 66 1016.5
20260904142551 80 98 2.0 8.0 0.00 0.00 0.00 67 1016.4
20260904142052 79 94 3.0 9.0 0.00 0.00 0.00 69 1016.3
20260904141602 79 101 4.0 9.0 0.00 0.00 0.00 68 1016.3
20260904141050 79 72 2.0 7.0 0.00 0.00 0.00 68 1016.4
20260904140552 79 81 2.0 6.0 0.00 0.00 0.00 68 1016.3
20260904140104 79 80 2.0 8.0 0.00 0.00 0.00 69 1016.3
20260904135552 78 101 2.0 8.0 0.00 0.00 0.00 70 1016.2
20260904135052 78 117 2.0 6.0 0.00 0.00 0.00 70 1016.2
20260904134603 78 124 2.0 7.0 0.00 0.00 0.00 71 1016.0
20260904134053 77 126 3.0 8.0 0.00 0.00 0.00 71 1016.0
20260904133556 77 123 2.0 8.0 0.00 0.00 0.00 71 1015.9
20260904133057 77 111 2.0 8.0 0.00 0.00 0.00 71 1015.9
20260904132553 77 142 2.0 8.0 0.00 0.00 0.00 72 1015.9
20260904132051 77 136 4.0 9.0 0.00 0.00 0.00 71 1015.7
20260904131606 77 140 4.0 9.0 0.00 0.00 0.00 71 1015.7
20260904131050 77 136 3.0 8.0 0.00 0.00 0.00 71 1015.7
20260904130553 77 136 3.0 7.0 0.00 0.00 0.00 71 1015.6
20260904130103 77 140 3.0 10.0 0.00 0.00 0.00 71 1015.5
20260904125550 77 137 3.0 10.0 0.00 0.00 0.00 71 1015.4
20260904125050 77 136 4.0 8.0 0.00 0.00 0.00 71 1015.3
20260904124609 77 141 3.0 8.0 0.00 0.00 0.00 71 1015.3
20260904124051 77 154 3.0 7.0 0.00 0.00 0.00 71 1015.3
20260904123553 77 142 2.0 9.0 0.00 0.00 0.00 71 1015.1
20260904123102 77 139 3.0 9.0 0.00 0.00 0.00 71 1015.0
20260904122553 77 125 4.0 8.0 0.00 0.00 0.00 71 1015.0
20260904122053 77 146 3.0 8.0 0.00 0.00 0.00 71 1014.9
20260904121603 77 144 2.0 10.0 0.00 0.00 0.00 71 1014.9
20260904121052 77 131 4.0 10.0 0.00 0.00 0.00 71 1014.9
20260904120551 77 140 3.0 7.0 0.00 0.00 0.00 72 1015.0
20260904120112 77 131 3.0 8.0 0.00 0.00 0.00 71 1015.0
20260904115554 77 131 3.0 9.0 0.00 0.00 0.00 71 1014.9
20260904115053 77 157 3.0 9.0 0.00 0.00 0.00 71 1014.9
20260904114608 77 132 2.0 7.0 0.00 0.00 0.00 71 1014.9
20260904114050 77 132 2.0 7.0 0.00 0.00 0.00 71 1014.9
20260904113549 77 132 1.0 7.0 0.00 0.00 0.00 71 1014.8
20260904113102 77 132 2.0 5.0 0.00 0.00 0.00 71 1015.0
20260904112552 77 136 1.0 7.0 0.00 0.00 0.00 71 1014.9
20260904112049 77 137 2.0 7.0 0.00 0.00 0.00 70 1014.7
20260904111601 77 138 3.0 8.0 0.00 0.00 0.00 70 1014.8
20260904111054 77 139 3.0 8.0 0.00 0.00 0.00 70 1014.8
20260904110553 78 133 4.0 8.0 0.00 0.00 0.00 69 1014.9
20260904110108 78 131 4.0 8.0 0.00 0.00 0.00 69 1014.9
20260904105553 78 166 3.0 8.0 0.00 0.00 0.00 69 1014.8
20260904105053 78 0 2.0 7.0 0.00 0.00 0.00 69 1014.8
20260904104606 78 127 3.0 9.0 0.00 0.00 0.00 69 1014.9
20260904104049 78 126 2.0 9.0 0.00 0.00 0.00 68 1014.8
20260904103552 78 123 3.0 7.0 0.00 0.00 0.00 68 1014.7
20260904103104 78 121 3.0 7.0 0.00 0.00 0.00 68 1014.7
20260904102551 78 128 3.0 8.0 0.00 0.00 0.00 68 1014.7
20260904102055 78 133 3.0 8.0 0.00 0.00 0.00 68 1014.7
20260904101609 78 134 3.0 8.0 0.00 0.00 0.00 69 1014.7
20260904101050 78 136 3.0 8.0 0.00 0.00 0.00 69 1014.7
20260904100549 78 130 3.0 8.0 0.00 0.00 0.00 69 1014.6
20260904100057 78 132 3.0 5.0 0.00 0.00 0.00 69 1014.6
20260904095553 78 138 2.0 5.0 0.00 0.00 0.00 69 1014.6
20260904095055 78 137 2.0 5.0 0.00 0.00 0.00 69 1014.6
20260904094604 78 137 2.0 5.0 0.00 0.00 0.00 69 1014.5
20260904094052 78 138 2.0 5.0 0.00 0.00 0.00 69 1014.5
20260904093551 78 136 2.0 7.0 0.00 0.00 0.00 69 1014.5
20260904093103 78 137 3.0 7.0 0.00 0.00 0.00 69 1014.5
20260904092552 78 149 2.0 6.0 0.00 0.00 0.00 69 1014.5
20260904092052 78 150 2.0 5.0 0.00 0.00 0.00 69 1014.4
20260904091601 78 144 2.0 5.0 0.00 0.00 0.00 69 1014.4
20260904091052 78 138 2.0 5.0 0.00 0.00 0.00 69 1014.4
20260904090552 78 136 2.0 5.0 0.00 0.00 0.00 69 1014.5
20260904090056 78 137 3.0 5.0 0.00 0.00 0.00 69 1014.4
20260904085552 78 132 2.0 5.0 0.00 0.00 0.00 69 1014.5
20260904085052 78 130 2.0 4.0 0.00 0.00 0.00 69 1014.5
20260904084603 78 130 1.0 4.0 0.00 0.00 0.00 69 1014.4
20260904084053 78 130 1.0 4.0 0.00 0.00 0.00 69 1014.4
20260904083554 78 130 1.0 4.0 0.00 0.00 0.00 68 1014.5
20260904083111 78 130 2.0 5.0 0.00 0.00 0.00 68 1014.5
20260904082552 78 130 1.0 5.0 0.00 0.00 0.00 68 1014.6
20260904082052 78 130 2.0 5.0 0.00 0.00 0.00 68 1014.6
20260904081602 78 133 1.0 5.0 0.00 0.00 0.00 68 1014.7
20260904081053 79 133 2.0 7.0 0.00 0.00 0.00 67 1014.7
20260904080552 79 133 2.0 7.0 0.00 0.00 0.00 67 1014.6
20260904080104 79 135 3.0 8.0 0.00 0.00 0.00 67 1014.8
20260904075552 79 120 2.0 8.0 0.00 0.00 0.00 67 1014.8
20260904075054 79 130 3.0 8.0 0.00 0.00 0.00 67 1014.6
20260904074611 79 117 2.0 6.0 0.00 0.00 0.00 67 1014.5
20260904074054 79 118 2.0 4.0 0.00 0.00 0.00 67 1014.6
20260904073553 79 118 2.0 4.0 0.00 0.00 0.00 66 1014.6
20260904073107 79 117 2.0 6.0 0.00 0.00 0.00 66 1014.6
20260904072553 79 117 2.0 6.0 0.00 0.00 0.00 66 1014.7
20260904072053 79 116 2.0 7.0 0.00 0.00 0.00 66 1014.7
20260904071601 79 121 2.0 7.0 0.00 0.00 0.00 65 1014.7
20260904071053 79 117 2.0 7.0 0.00 0.00 0.00 65 1014.8
20260904070553 79 111 3.0 7.0 0.00 0.00 0.00 65 1014.9
20260904070056 80 122 1.0 7.0 0.00 0.00 0.00 64 1014.9
20260904065554 80 111 3.0 7.0 0.00 0.00 0.00 64 1014.7
20260904065052 80 109 2.0 6.0 0.00 0.00 0.00 64 1014.8
20260904064628 80 109 2.0 8.0 0.00 0.00 0.00 63 1014.8
20260904064052 80 108 2.0 8.0 0.00 0.00 0.00 63 1014.7
20260904063552 80 103 2.0 8.0 0.00 0.00 0.00 63 1014.6
20260904063126 80 101 3.0 6.0 0.00 0.00 0.00 62 1014.7
20260904062551 80 101 2.0 6.0 0.00 0.00 0.00 62 1014.7
20260904062054 80 104 3.0 6.0 0.00 0.00 0.00 62 1014.7
20260904061601 80 109 2.0 6.0 0.00 0.00 0.00 62 1014.7
20260904061052 80 109 2.0 6.0 0.00 0.00 0.00 61 1014.7
20260904060552 80 109 2.0 4.0 0.00 0.00 0.00 61 1014.7
20260904060109 81 110 0.0 4.0 0.00 0.00 0.00 61 1014.6
20260904055551 81 110 0.0 3.0 0.00 0.00 0.00 61 1014.6
20260904055052 81 110 1.0 7.0 0.00 0.00 0.00 60 1014.5
20260904054604 81 110 0.0 7.0 0.00 0.00 0.00 60 1014.5
20260904054051 81 110 3.0 8.0 0.00 0.00 0.00 60 1014.5
20260904053551 81 109 3.0 8.0 0.00 0.00 0.00 60 1014.5
20260904053103 81 126 3.0 8.0 0.00 0.00 0.00 59 1014.4
20260904052552 82 122 3.0 9.0 0.00 0.00 0.00 59 1014.6
20260904052053 82 108 4.0 9.0 0.00 0.00 0.00 58 1014.6
20260904051600 82 134 2.0 7.0 0.00 0.00 0.00 58 1014.6
20260904051052 82 126 2.0 7.0 0.00 0.00 0.00 58 1014.7
20260904050552 82 125 2.0 8.0 0.00 0.00 0.00 58 1014.7
20260904050105 82 109 3.0 8.0 0.00 0.00 0.00 57 1014.7
20260904045552 82 117 5.0 11.0 0.00 0.00 0.00 57 1014.7